This is the latest recevied weather packets stored in our database for station/object VK4HIT-13. If no packets are shown the sender has not sent any weather packets the latest 10 day(s).
| Time | Temp. | Humidity | Pressure | Rain* | Wind** | Luminosity | Snow |
|---|---|---|---|---|---|---|---|
| 1777357485 | 22.22° C | 65% | 1021.4 hPa | 0 mm | - | - | - |
| 1777357185 | 22.22° C | 65% | 1021.5 hPa | 0 mm | - | - | - |
| 1777356885 | 22.22° C | 64% | 1021.4 hPa | 0 mm | - | - | - |
| 1777356585 | 22.22° C | 64% | 1021.4 hPa | 0 mm | - | - | - |
| 1777356285 | 22.22° C | 64% | 1021.5 hPa | 0 mm | - | - | - |
| 1777355985 | 22.78° C | 64% | 1021.5 hPa | 0 mm | - | - | - |
| 1777355685 | 22.78° C | 64% | 1021.4 hPa | 0 mm | - | - | - |
| 1777355385 | 22.78° C | 64% | 1021.3 hPa | 0 mm | - | - | - |
| 1777355085 | 22.22° C | 66% | 1021.4 hPa | 0 mm | - | - | - |
| 1777354785 | 22.22° C | 67% | 1021.3 hPa | 0 mm | - | - | - |
| 1777354485 | 22.22° C | 67% | 1021.3 hPa | 0 mm | - | - | - |
| 1777354185 | 22.22° C | 69% | 1021.3 hPa | 0 mm | - | - | - |
| 1777353885 | 21.67° C | 70% | 1021.2 hPa | 0 mm | - | - | - |
| 1777353585 | 21.11° C | 71% | 1021.3 hPa | 0 mm | - | - | - |
| 1777353285 | 21.11° C | 70% | 1021.3 hPa | 0 mm | - | - | - |
| 1777352985 | 21.67° C | 67% | 1021.2 hPa | 0 mm | - | - | - |
| 1777352685 | 22.22° C | 64% | 1021 hPa | 0 mm | - | - | - |
| 1777352385 | 22.78° C | 62% | 1021 hPa | 0 mm | - | - | - |
| 1777352085 | 22.78° C | 60% | 1021 hPa | 0 mm | - | - | - |
| 1777351785 | 22.78° C | 60% | 1021.1 hPa | 0 mm | - | - | - |
| 1777351485 | 22.78° C | 60% | 1021 hPa | 0 mm | - | - | - |
| 1777351185 | 23.33° C | 58% | 1020.9 hPa | 0 mm | - | - | - |
| 1777350885 | 23.89° C | 58% | 1020.9 hPa | 0 mm | - | - | - |
| 1777350585 | 23.89° C | 56% | 1020.9 hPa | 0 mm | - | - | - |
| 1777350285 | 23.89° C | 56% | 1020.9 hPa | 0 mm | - | - | - |
* Rain latest hour (hover to see other rain measurements)
** Current wind speed in m/s (hover to see current wind gust speed)